Regional Weather Roundup
Issued by NWS Portland, ME

Current Version | Previous Version | Text Only | Print | Product List | Glossary Off
Versions: 1 2 3 4 5 6 7 8 9 10 11 12 13 14 15 16 17 18 19 20 21 22 23 24 25 26 27 28 29 30 31 32 33 34 35 36 37 38 39 40 41 42 43 44 45 46 47 48 49 50
000 ASUS41 KGYX 221010 RWRGYX WEATHER ROUNDUP FOR MAINE AND NEW HAMPSHIRE NATIONAL WEATHER SERVICE GRAY ME 500 AM EST THU FEB 22 2018 MEZ002-005-006-010-012-015-018-020-021-024-026-027-029-221100- MAINE CITY SKY/WX TMP DP RH WIND PRES REMARKS PORTLAND CLOUDY 37 23 56 N9 30.56R SANFORD CLOUDY 38 25 59 NE8 30.56R BAR HARBOR FAIR 31 20 63 NW6 30.57R WISCASSET CLOUDY 35 18 49 CALM 30.59R ROCKLAND CLOUDY 35 14 42 VRB7 30.56R FRYEBURG FAIR 33 22 63 CALM 30.57R LEWISTONAUBURN FAIR 34 16 47 N13 30.58R AUGUSTA FAIR 32 13 45 N8 30.58R WATERVILLE FAIR 31 13 47 N6 30.53R BANGOR FAIR 29 17 61 NW13 30.57R WCI 19 GREENVILLE N/A 19 12 74 NW9 30.51R MILLINOCKET FAIR 24 11 57 NW12 30.59R WCI 13 HOULTON FAIR 19 5 54 N8 30.55R PRESQUE ISLE FAIR 15 3 59 NW10 30.59R WCI 2 FRENCHVILLE FAIR 7 -1 70 NW9 30.52R CARIBOU FAIR 13 1 59 NW10 30.55R WCI 0 $$ NHZ002-005-008-009-011-012-014-221100- NEW HAMPSHIRE CITY SKY/WX TMP DP RH WIND PRES REMARKS PORTSMOUTH CLOUDY 40 23 52 NW8 30.56R ROCHESTER CLOUDY 38 23 55 NW9 30.56R MANCHESTER CLOUDY 40 21 46 N8 30.56R CONCORD CLOUDY 37 19 48 NW13G21 30.58R LACONIA CLOUDY 35 18 49 W7 30.56R PLYMOUTH CLOUDY 33 20 59 W8 30.58R BERLIN FAIR 28 16 60 N6 30.57R WHITEFIELD FAIR 26 21 81 CALM 30.58R JAFFREY CLOUDY 37 21 52 N5 30.54R KEENE CLOUDY 37 24 59 N10 30.57R LEBANON CLOUDY 34 21 59 N8 30.59R MT WASHINGTON PTCLDY 14 -2 48 NW56 N/A WCI -12 $$ VTZ005-007-008-221100- VERMONT CITY SKY/WX TMP DP RH WIND PRES REMARKS MONTPELIER FAIR 27 18 69 CALM 30.62R BURLINGTON FAIR 30 16 56 NW9 30.66R $$ MAZ007-012-024-CTZ003-RIZ002-NYZ038-NYZ072-221100- SOUTHERN NEW ENGLAND AND NY CITY SKY/WX TMP DP RH WIND PRES REMARKS BOSTON CLOUDY 44 24 45 N12 30.56R WORCESTER CLOUDY 40 32 73 N7 30.53R NANTUCKET CLOUDY 44 39 82 NE16 30.50R PROVIDENCE LGT RAIN 48 24 39 N10 30.54R HARTFORD CLOUDY 44 25 47 N12 30.55R ALBANY CLOUDY 38 27 64 N6 30.60R NEW YORK CITY CLOUDY 49 36 61 N9 30.53R $$ ANZ081-ANZ082-ANZ150-NHZ014-MEZ023>029-221100- COASTAL MARINE OBSERVATIONS STATION/POSITION TIME TEMP WIND PRES WAVE AIR SEA DIR/SP/G HT/PER (UTC) (F) (DEG/KT/KT) (MB) (FT/S) MOUNT DESERT ROC 1000 36 340/ 22/ 24 1034.3R MATINICUS ROCK 1000 36 360/ 22/ 23 1033.8R ISLE OF SHOALS 1000 41 10/ 13/ 15 1035.0R JEFFREYS LEDGE 0936 42 N/A 4/13 GEORGES BANK BUO 0850 53 58 1017.3 13/10 $$ .............KEY.............. WCI - WIND CHILL TC - TEMPERATURE IN CELSIUS VSB - VISIBILITY IN MILES HX - HEAT INDEX FAIR- INDICATES FEW OR NO CLOUDS BELOW 12,000 FT, WITH NO SIGNIFICANT WEATHER AND/OR OBSTRUCTIONS TO VISIBILITY.

USA.gov is the U.S. government's official web portal to all federal, state and local government web resources and services.